Location: Bailleul
(50.3375°N, 2.8513°E)
Time: 16:42:24
(UTC+00:00)

Cosmos 1633 Rocket - Pass Details

Date: 19 April 2021
Orbit: 606 x 624 km, 82.5° (Epoch: 06 May)

Event Time Altitude Azimuth Distance (km) Brightness Sun altitude
Rises 22:45:07 0° 353° (N) 2,879 7.7 -26.7°
Reaches altitude 10° 22:47:24 10° 359° (N) 1,971 6.6 -26.8°
Enters shadow 22:50:48 43° 39° (NE) 866 3.9 -26.9°
